Theta_e
295 296 296 297 297 297 297 297 297 298 297 297 297 296 297 300 301 301 304 309 310 311 311 311 311 312 312 312 312 312 313 314 316 318 318 320 320 318 318 317 320 319 322 321 319 321 316 310 311 315 310 310 310 309
296 296 297 297 297 297 297 297 297 298 297 297 296 296 297 300 301 300 304 305 311 311 312 311 311 310 312 310 312 311 314 315 316 316 317 319 321 314 314 317 313 318 316 317 316 315 311 310 312 310 308 308 307 306
296 297 297 298 298 298 297 298 298 297 297 297 295 296 297 300 300 300 301 304 311 311 311 310 311 311 311 311 311 313 312 312 315 312 314 317 318 312 316 313 315 313 311 316 316 314 312 311 310 306 305 304 303 302
297 297 297 297 297 297 297 297 297 297 296 296 295 296 298 298 299 300 300 302 306 311 313 312 309 309 310 309 311 310 311 311 312 314 317 318 319 311 313 312 313 312 312 314 313 312 309 309 308 304 302 302 301 300
297 297 297 296 296 296 296 296 296 295 295 294 295 296 297 297 298 299 301 305 308 312 316 314 309 308 308 309 310 310 311 311 314 317 319 320 316 313 308 308 310 307 313 315 316 313 311 309 305 303 303 302 301 300
297 297 296 296 295 295 294 294 294 294 294 295 295 295 295 296 297 298 307 308 309 311 312 314 310 309 307 308 308 310 311 312 313 317 318 317 312 314 316 313 313 308 307 309 313 307 306 305 304 303 302 300 300 299
297 296 296 295 295 294 294 294 294 294 294 294 295 295 296 297 298 299 306 305 307 308 313 311 311 309 308 307 307 309 309 311 313 315 317 316 313 313 315 314 313 309 307 307 305 305 307 307 305 301 301 300 298 296
296 296 295 295 294 294 294 293 294 294 294 295 296 297 298 298 299 300 304 306 305 310 311 310 311 311 308 313 312 310 313 312 313 314 312 315 312 312 316 314 312 306 304 304 304 304 306 302 301 300 299 298 298 296
296 296 296 295 294 294 294 293 293 294 295 295 297 299 299 300 303 306 309 309 310 310 311 309 310 310 308 311 310 310 310 316 310 314 313 311 315 316 314 312 310 306 307 304 300 301 302 302 300 299 298 298 297 295
296 296 296 295 295 295 294 293 293 294 294 295 296 301 305 301 301 307 309 310 307 307 308 312 307 311 308 311 310 311 308 312 313 312 307 310 312 311 309 308 307 304 302 301 303 301 300 299 299 298 298 297 296 295
295 296 295 295 295 295 294 293 293 294 294 295 296 297 296 299 304 308 308 309 308 309 309 309 306 309 305 311 313 307 308 307 312 307 312 312 311 306 302 304 304 301 300 302 302 300 302 301 299 297 296 295 294 293
296 296 295 295 295 294 292 293 293 293 294 295 295 294 294 299 304 307 307 306 308 311 308 311 308 306 305 304 306 306 307 306 310 301 309 311 304 300 300 303 302 300 300 301 300 299 298 297 297 295 294 293 291 290
295 295 295 295 295 292 293 293 293 294 294 294 295 295 299 302 307 309 311 309 309 304 305 305 306 305 304 303 302 303 311 311 301 304 308 303 298 298 298 298 298 298 298 297 296 295 295 294 295 294 292 291 290 288
295 295 295 295 291 293 294 293 292 293 293 295 298 300 299 305 305 305 304 304 299 299 303 305 304 305 305 306 306 311 304 302 302 304 304 298 296 298 297 296 297 296 295 294 294 294 294 294 293 292 291 290 289 287
295 295 294 291 292 294 293 292 292 293 293 295 297 300 302 300 299 298 297 298 298 300 301 303 302 304 303 305 301 301 304 305 303 305 298 291 289 290 296 295 294 293 293 293 294 294 293 293 292 291 290 289 287 285
295 294 290 291 293 293 291 291 292 293 292 294 294 296 300 299 300 296 297 299 298 302 299 301 303 305 306 301 300 300 301 303 305 295 289 282 292 293 293 293 292 293 293 293 293 293 292 292 290 287 286 286 285 285
294 293 291 293 292 290 291 291 292 293 295 294 297 296 297 297 298 297 299 299 301 301 305 303 306 307 295 290 296 295 300 301 292 286 283 284 288 291 290 291 291 292 292 292 292 291 289 287 287 286 284 282 283 283
293 293 293 293 290 290 291 291 291 291 293 291 292 286 293 294 296 297 297 297 299 301 298 303 297 294 296 296 296 295 289 283 287 284 286 287 287 288 289 289 290 290 289 289 288 287 288 288 286 283 281 281 281 281
294 294 293 289 289 290 286 290 290 291 290 291 292 292 293 294 294 295 296 296 296 296 297 298 299 296 297 292 290 285 280 286 290 291 288 287 288 288 288 287 287 287 287 287 288 288 286 286 283 282 281 281 280 279
294 291 289 288 288 288 286 280 286 290 290 283 289 291 290 292 292 294 295 294 295 297 300 301 301 295 293 292 288 288 287 287 289 290 288 286 285 285 286 287 287 285 284 284 284 283 282 281 281 281 281 280 280 280
291 289 288 287 288 286 285 287 282 286 289 289 286 284 289 286 294 295 296 294 297 300 299 294 293 291 289 288 289 288 289 288 290 290 289 284 285 285 285 285 285 286 285 285 284 284 283 281 280 282 281 280 279 279
289 288 287 285 280 277 278 286 284 281 287 288 284 277 288 289 281 289 290 294 288 285 284 284 285 285 287 288 288 288 289 290 290 289 289 288 286 285 286 286 286 285 285 286 284 282 280 280 280 280 279 278 279 279
288 286 284 281 279 277 279 277 279 280 282 280 274 278 278 281 284 285 287 286 283 282 281 281 280 281 282 286 288 288 289 289 287 287 288 285 286 286 286 286 286 284 283 281 281 281 280 281 280 279 278 278 278 278
286 280 280 279 275 277 276 274 278 275 274 277 275 279 278 278 280 282 284 281 281 280 279 278 278 280 284 287 287 286 286 288 286 286 286 286 285 284 286 285 285 285 283 281 281 281 280 279 280 278 278 277 276 275
283 279 276 276 269 275 275 274 271 277 279 274 278 277 278 278 282 281 281 278 279 278 277 276 276 277 279 283 285 285 285 286 286 285 286 285 283 283 282 282 282 282 282 281 280 280 279 278 278 277 277 277 275 274
281 275 276 275 272 277 277 278 275 276 274 275 275 274 272 280 280 281 280 276 274 276 276 275 274 275 276 279 281 283 283 283 285 284 283 284 284 284 283 282 281 281 282 282 281 279 278 278 277 277 277 276 276 275
279 277 279 280 279 278 278 278 278 276 274 276 273 275 274 279 278 281 277 273 272 274 273 273 273 274 275 276 278 280 280 282 284 284 284 285 285 284 284 284 283 281 282 282 281 280 278 277 277 277 276 276 275 275
281 279 279 275 276 272 275 274 273 276 276 277 278 276 276 278 280 273 271 273 272 271 272 273 275 275 276 277 278 278 278 279 281 281 281 282 283 284 285 285 284 283 283 282 281 281 280 279 278 277 276 275 274 274
278 277 278 273 271 271 273 276 276 275 276 275 276 276 275 274 268 266 272 272 271 270 271 274 276 278 277 277 278 278 278 279 282 283 283 280 279 279 281 281 280 280 281 280 280 282 283 281 279 277 276 275 274 273
277 274 275 268 274 277 272 270 270 267 270 271 272 271 271 269 272 272 272 271 270 269 271 272 275 277 278 278 278 278 279 281 283 283 282 281 277 277 278 279 279 280 281 281 278 278 277 276 275 275 274 273 272 272
274 271 271 271 271 266 265 267 268 271 264 263 263 267 269 266 270 272 271 271 272 273 274 275 276 275 277 277 278 279 279 279 281 283 282 278 278 278 278 278 280 280 278 278 277 275 274 275 274 273 272 272 271 272
276 272 272 273 270 266 265 264 262 265 263 265 266 261 264 267 270 266 271 272 274 273 275 274 274 274 275 275 277 277 277 277 277 277 277 277 277 277 278 279 278 279 278 277 276 275 275 274 273 272 272 271 271 271
268 265 262 264 267 268 267 266 266 265 265 264 265 264 263 268 273 268 271 271 272 271 272 273 274 274 275 275 276 276 276 276 276 277 278 278 278 279 279 279 278 277 277 276 275 274 274 273 273 272 271 271 271 270
Wind_Speed
24 25 27 29 29 28 27 24 23 21 21 21 20 21 21 25 25 26 12 8 3 2 2 1 3 4 3 3 3 2 2 3 3 4 2 2 3 4 2 3 4 6 3 3 2 2 4 4 4 2 3 3 3 2
24 25 27 28 27 27 25 23 23 19 19 19 20 20 19 23 21 23 6 15 2 1 2 2 3 2 5 7 4 3 1 2 3 3 3 3 2 1 2 3 2 3 5 3 6 5 4 3 3 2 2 1 3 2
24 25 27 27 27 25 23 22 20 18 18 18 20 19 19 24 20 20 13 14 1 1 2 1 4 4 7 10 12 3 2 3 3 1 3 2 3 3 3 5 2 3 3 2 3 3 4 4 1 3 4 3 3 7
25 24 25 25 25 24 22 19 18 17 18 20 21 20 22 22 22 20 12 14 9 1 1 1 1 1 2 8 15 10 1 1 3 1 2 2 2 3 3 2 3 4 3 3 4 7 5 4 2 4 6 7 10 10
23 22 22 22 21 22 21 20 20 20 21 21 21 22 22 22 23 26 18 7 9 2 2 2 1 1 2 7 7 7 4 2 2 1 3 3 1 2 1 1 3 5 6 4 4 4 2 0 5 6 6 6 8 13
21 20 20 20 20 21 21 21 22 22 22 23 24 25 23 21 20 12 2 5 7 3 1 2 0 2 2 5 5 3 4 3 2 2 2 2 1 3 3 3 5 4 3 2 2 2 3 6 5 4 8 7 8 11
19 18 19 20 20 21 22 23 24 24 25 27 27 27 24 21 16 5 4 1 5 0 1 2 1 0 3 2 1 2 2 2 2 2 2 1 1 1 1 4 4 3 5 3 4 6 5 2 5 7 12 12 12 12
17 17 18 20 21 22 23 24 25 25 29 30 31 26 20 13 9 8 11 9 8 3 1 1 2 1 3 1 1 1 1 1 2 1 1 1 0 1 4 8 2 4 6 5 3 2 3 10 11 10 10 13 13 11
16 16 18 20 22 23 24 25 25 28 33 32 22 6 3 4 4 3 5 8 11 3 2 2 2 2 1 0 0 0 1 2 0 2 0 1 2 4 7 5 4 7 5 8 5 7 8 11 10 10 11 10 14 10
16 16 17 19 22 23 23 23 26 30 31 18 9 3 1 2 10 3 5 3 1 2 1 2 1 2 1 1 0 0 1 0 1 1 2 2 4 7 4 4 2 8 9 11 10 5 6 6 10 10 8 8 11 10
16 16 17 19 22 23 21 22 27 28 13 8 4 3 11 12 1 1 1 0 1 1 2 2 3 3 1 2 2 0 1 0 1 2 1 2 4 4 4 4 1 7 9 5 2 5 6 12 14 13 10 9 11 12
16 16 17 18 21 20 19 24 23 22 12 8 10 9 6 3 2 2 3 0 2 3 1 3 3 2 1 1 2 1 2 1 3 3 1 3 4 3 3 3 2 5 7 5 3 8 11 12 11 12 12 11 13 20
15 17 18 18 19 18 23 23 23 17 9 2 1 1 2 1 1 5 6 1 1 2 2 2 1 2 1 2 2 1 1 2 1 0 3 4 3 3 2 2 4 5 6 7 7 8 12 11 16 18 13 18 21 20
15 17 18 18 13 22 21 23 18 7 2 1 2 2 2 1 2 1 1 1 2 2 1 1 2 2 1 3 1 1 1 2 1 2 5 3 3 1 1 2 5 5 6 8 9 10 13 13 13 18 19 20 23 21
15 18 19 8 21 21 22 17 8 1 0 1 0 1 1 2 2 1 2 1 2 2 1 2 2 2 1 3 1 2 1 4 5 4 3 3 2 2 4 3 6 7 7 8 9 11 13 15 15 17 19 22 24 25
14 17 1 19 22 20 18 9 3 1 1 0 1 2 2 1 1 2 2 2 2 1 1 2 2 3 3 4 3 7 5 6 4 3 3 1 2 3 4 5 5 6 9 10 10 13 17 17 16 18 21 23 23 26
12 4 15 23 20 20 6 3 3 2 2 2 1 1 1 3 3 2 2 2 1 0 3 2 5 7 3 2 3 4 5 3 3 3 1 2 3 5 5 6 6 8 10 10 15 17 19 23 26 25 14 16 25 26
5 15 20 19 18 9 2 4 2 2 2 1 2 3 3 3 4 4 2 3 2 2 1 3 3 2 5 6 4 4 3 2 1 2 2 1 4 4 4 7 7 9 10 14 18 19 22 20 15 12 22 25 27 26
13 17 16 13 10 3 2 2 2 1 2 2 4 3 3 5 6 6 5 4 4 2 2 1 3 4 4 3 3 3 2 2 2 1 2 1 4 6 7 10 12 12 14 16 18 15 16 17 19 22 23 22 20 19
13 11 9 11 4 2 1 3 1 1 2 2 2 3 4 5 3 4 5 3 2 2 4 4 3 0 1 2 1 2 2 3 3 2 1 1 3 8 6 9 8 15 16 19 19 22 22 20 19 20 22 23 23 18
8 2 8 4 2 3 1 1 1 1 2 3 2 3 4 3 3 2 2 1 3 2 2 2 2 3 5 4 4 2 4 4 4 3 4 3 3 8 8 13 16 15 12 11 9 14 15 15 19 22 24 22 24 26
3 6 3 1 3 3 2 1 1 2 2 2 3 2 3 3 3 2 3 1 2 2 3 4 5 6 7 5 5 7 7 6 3 3 8 14 5 5 6 10 11 6 8 11 15 15 17 21 26 26 27 25 27 26
4 1 1 3 3 3 4 2 3 2 1 3 3 3 3 2 2 2 1 1 1 2 3 4 8 13 9 11 8 2 1 5 3 3 4 5 10 12 13 13 15 12 7 11 17 21 22 23 22 27 26 27 27 23
0 3 1 0 2 3 2 3 1 3 3 3 3 4 4 3 3 2 2 1 2 3 4 8 7 7 5 3 2 2 4 3 6 6 9 9 6 5 13 15 14 15 18 22 23 23 23 23 26 26 26 26 24 24
4 4 3 3 3 3 2 3 4 3 1 1 1 4 3 2 2 2 2 2 2 2 4 6 5 5 4 5 4 3 5 1 3 4 6 14 14 13 11 14 17 19 25 28 22 24 22 24 24 25 25 26 25 24
1 4 4 5 2 3 4 3 3 5 2 2 4 3 3 2 2 4 2 2 2 2 3 5 5 6 6 5 6 5 5 6 9 3 6 15 15 13 9 9 8 9 17 21 31 28 24 24 26 26 23 21 22 25
3 5 2 1 2 3 2 2 2 3 3 4 3 3 3 1 4 3 1 1 2 3 13 14 11 6 6 8 15 14 11 6 5 6 10 12 13 18 20 15 10 18 26 28 28 31 32 28 27 25 24 24 23 23
4 4 5 3 1 0 4 2 4 6 4 2 2 1 4 6 4 2 3 3 10 18 19 19 17 15 14 13 14 11 4 8 14 17 18 16 16 18 21 22 26 32 29 29 31 31 32 32 31 30 28 26 21 17
3 2 3 2 1 1 4 6 5 3 1 3 4 3 3 2 2 2 3 8 16 15 10 9 11 11 10 8 6 6 8 11 7 9 9 5 4 8 21 29 30 29 29 27 25 29 30 31 31 29 27 25 21 18
3 2 3 2 5 5 3 2 2 2 1 2 1 2 2 3 4 5 8 11 12 9 12 15 14 9 4 3 2 1 1 4 8 7 8 7 7 18 23 26 31 32 31 31 30 28 27 29 28 28 27 24 21 18
3 3 3 2 3 2 2 2 2 2 2 1 2 2 3 3 5 4 5 10 11 12 10 7 6 8 6 5 3 2 2 4 9 12 20 29 29 27 26 29 33 34 34 35 34 32 30 31 30 27 24 21 16 13
2 3 4 2 2 2 2 2 1 1 2 1 2 1 3 2 3 2 2 5 4 6 8 8 7 6 8 4 5 6 7 13 19 27 29 30 31 32 34 35 35 35 35 34 32 32 31 30 27 25 22 18 14 11
2 2 2 2 2 1 1 3 3 3 1 1 2 2 2 2 5 3 2 0 1 3 7 7 6 7 7 9 11 12 12 16 19 25 28 30 34 35 35 33 32 32 32 32 30 29 27 26 23 20 17 14 11 8
Wind_Direction
329 331 334 333 335 336 334 329 331 331 331 335 339 339 337 341 347 351 297 338 330 43 298 332 152 129 112 148 166 171 178 215 170 158 198 235 193 208 224 233 186 192 186 202 123 272 309 352 334 73 260 296 300 276
328 332 334 332 333 335 331 329 327 331 332 333 336 336 333 337 348 354 319 330 324 356 294 308 267 209 182 158 161 184 257 277 197 162 191 246 230 136 206 269 12 252 186 202 177 218 249 260 266 313 271 290 308 167
326 331 332 333 334 335 332 329 331 333 333 334 333 332 331 336 347 345 318 309 186 272 278 337 238 217 211 200 193 176 208 216 256 124 191 207 227 124 185 240 216 253 186 215 6 298 271 293 10 24 37 88 64 90
325 331 334 335 339 340 339 338 336 334 332 330 329 328 328 330 334 335 317 290 296 138 287 269 83 62 248 205 197 206 139 299 310 284 223 216 227 154 206 240 209 213 147 199 262 276 284 255 75 119 82 85 86 79
327 333 336 336 340 342 341 339 338 333 329 327 325 322 323 323 328 324 303 266 232 308 330 324 5 160 161 174 188 223 247 232 243 214 229 219 135 133 204 84 247 189 193 170 223 224 151 314 132 125 104 94 98 107
328 333 335 334 337 338 337 334 331 328 326 323 321 315 313 315 322 337 303 226 233 219 296 298 320 159 128 168 180 215 239 230 251 223 235 193 222 186 185 236 253 206 215 192 262 99 80 106 98 93 106 100 95 101
327 331 333 330 333 336 333 331 328 325 326 321 315 309 302 298 292 242 274 275 79 318 237 300 279 256 162 146 194 205 203 232 248 272 267 273 253 175 223 224 237 195 215 165 132 123 77 183 140 113 111 104 96 87
323 327 329 327 330 333 332 330 325 324 325 322 316 306 293 282 265 261 272 262 214 236 224 250 273 292 171 205 198 199 235 212 209 285 263 239 214 160 251 233 187 115 109 95 19 322 132 115 109 105 115 117 106 104
320 324 327 325 328 330 332 332 327 328 328 326 326 338 107 174 206 249 289 166 165 221 209 164 164 246 328 286 257 167 24 238 148 267 251 297 190 221 234 241 197 184 178 155 89 85 103 114 118 122 120 114 116 117
317 322 326 326 327 329 333 336 334 333 332 338 1 326 206 81 303 166 194 158 93 303 134 228 145 199 175 191 241 273 41 341 285 357 328 225 256 261 245 230 211 170 148 146 119 104 111 112 138 138 133 127 127 125
313 319 325 327 328 328 330 335 336 338 350 7 3 339 306 336 280 107 78 170 135 246 203 230 176 164 230 163 195 77 165 5 301 275 278 263 268 257 335 242 176 160 160 169 64 106 135 146 148 136 121 112 116 113
316 317 326 329 329 331 331 335 336 337 318 301 300 303 308 326 4 128 182 344 176 224 197 165 192 175 143 302 100 17 116 72 255 326 289 260 255 294 351 32 55 147 144 108 101 123 123 127 131 124 122 115 107 115
315 319 325 330 329 333 333 335 334 326 317 354 121 296 311 292 170 183 171 173 187 224 196 149 113 131 82 61 58 83 222 245 89 345 241 235 258 276 297 48 82 110 108 103 98 99 112 110 118 124 117 117 118 113
312 315 321 329 321 333 334 334 336 332 331 8 12 335 176 232 266 31 11 301 358 298 199 119 97 132 126 68 91 139 36 13 342 271 238 251 251 165 127 105 120 114 109 109 111 118 118 115 107 110 117 126 124 119
311 313 318 328 335 336 336 338 343 329 99 326 42 253 257 352 271 280 235 268 247 269 219 90 51 102 65 109 68 95 282 251 219 233 234 246 240 178 137 125 128 123 118 112 121 119 117 117 113 106 113 119 121 121
317 316 13 338 339 337 342 3 359 12 91 272 288 340 330 289 319 338 296 281 224 267 332 51 134 126 199 151 138 214 154 226 248 219 243 273 193 153 133 128 120 115 120 122 123 122 120 121 118 111 108 115 121 128
318 250 326 334 336 337 15 19 -0 352 321 300 233 234 244 244 256 265 304 275 349 134 229 164 178 209 84 65 259 194 208 221 223 264 257 221 188 164 137 120 116 118 117 120 120 117 114 119 121 117 109 106 122 128
266 308 328 328 335 341 22 34 75 355 298 297 298 271 303 267 272 266 242 279 271 231 233 244 130 142 190 180 248 238 234 250 249 254 260 198 142 127 119 121 114 120 118 118 120 122 125 125 118 112 116 121 116 120
301 313 309 321 336 328 20 21 30 316 257 287 287 290 277 280 266 262 261 261 265 283 293 240 227 208 221 220 243 270 245 211 181 143 52 57 136 125 111 101 104 108 117 125 129 126 119 118 125 129 129 129 122 127
307 303 302 328 337 84 355 318 29 241 254 254 282 279 279 273 281 276 270 247 192 228 219 215 232 310 273 299 236 266 242 183 144 95 71 57 104 115 124 131 125 119 109 108 110 116 114 109 117 127 132 133 132 133
310 272 327 333 88 60 135 173 323 233 300 276 276 320 283 308 266 264 282 346 207 218 290 10 357 343 310 275 275 268 279 184 198 178 176 149 158 126 112 117 129 133 133 135 131 131 126 128 133 133 134 131 136 142
252 314 287 352 77 18 74 69 197 258 275 286 298 341 278 294 295 325 305 284 47 8 349 334 330 329 320 329 320 296 270 194 189 124 121 132 141 136 144 147 141 132 134 144 142 133 128 131 137 137 133 130 138 134
294 319 35 43 55 50 251 21 64 341 56 291 353 5 299 295 251 334 60 42 75 26 327 309 311 300 282 290 298 350 65 127 125 142 146 125 132 135 138 143 145 140 128 113 131 130 128 134 132 130 130 133 130 124
150 52 101 108 93 242 7 7 353 17 8 20 36 306 306 262 322 38 270 31 352 339 351 345 336 328 325 304 330 334 4 120 122 111 140 133 128 117 141 137 137 140 137 133 131 128 130 131 136 134 135 133 135 137
76 298 106 277 322 57 52 8 344 47 263 287 36 301 293 356 331 300 250 277 322 326 334 335 337 336 312 306 324 325 340 174 150 142 139 137 122 111 105 112 116 136 143 133 135 134 133 135 136 137 139 143 144 148
223 245 147 198 252 150 186 151 197 202 152 324 244 277 1 11 340 255 245 241 258 280 328 324 318 319 314 305 317 314 325 332 165 123 147 159 162 156 151 148 138 146 163 154 145 140 138 139 140 142 143 148 152 152
236 256 222 205 124 112 71 28 41 124 150 203 255 350 44 335 261 251 314 211 249 295 306 295 279 266 272 290 297 296 297 276 197 153 155 168 167 164 162 158 154 155 163 159 154 150 146 145 143 144 143 153 162 162
214 184 174 208 101 69 144 136 166 196 214 200 107 268 191 205 248 240 225 263 309 320 311 306 302 283 275 285 290 287 261 154 138 134 123 118 139 154 160 160 162 159 162 167 161 158 152 150 150 152 153 150 149 154
194 186 115 110 69 168 209 188 208 218 151 137 163 225 244 238 228 227 274 305 320 318 303 306 314 316 305 303 283 254 223 180 176 170 140 134 121 96 136 137 139 141 147 144 153 158 159 158 157 153 148 146 145 145
225 153 108 118 161 219 239 169 191 221 146 143 256 328 297 280 260 262 286 319 327 308 303 300 299 305 283 282 291 42 135 225 234 170 152 144 128 133 132 133 133 138 143 139 128 126 128 134 136 139 140 140 143 143
115 89 73 108 218 248 233 288 333 59 44 36 344 176 252 293 306 260 281 320 321 317 316 331 353 7 353 9 1 328 13 63 151 159 150 136 134 132 131 130 134 135 132 131 137 138 138 140 142 141 141 141 140 140
114 154 144 176 256 283 26 69 96 92 340 26 270 317 322 356 283 278 304 354 25 4 358 3 2 344 354 4 70 89 122 128 125 133 131 130 129 132 134 135 138 139 141 145 145 144 144 143 143 144 142 139 136 131
78 78 59 82 45 352 276 90 30 337 351 285 268 213 224 217 245 260 226 51 45 347 351 1 21 40 58 77 88 98 116 120 120 126 136 135 136 136 136 137 140 143 142 140 140 141 140 140 139 139 136 133 132 133